Meteor 2-9 Rocket - Orbit

View from above orbital plane
View from above orbital plane
View from above satellite
View from above satellite

Ground track
Ground track

The orbit data is extracted from the following two-line orbital elements,

1 13719U 82116B   13140.81859591  .00000064  00000-0  26747-4 0  1547
2 13719 081.2555 018.2001 0070832 277.9006 134.8984 14.14388347569956
Epoch (UTC): 20 May 2013 19:38:46
Eccentricity: 0.0070832
inclination: 81.2555°
perigee height: 793 km
apogee height: 895 km
right ascension of ascending node: 18.2001°
argument of perigee: 277.9006°
revolutions per day: 14.14388347
mean anomaly at epoch: 134.8984°
orbit number at epoch: 56995

The dashed part of the orbit path shows where the satellite is in the earth's shadow,  

Developed and maintained by Chris Peat, Heavens-Above GmbH. Please read the updated FAQ before sending e-mail. Imprint. DLR